Weather in Leskovac

Serbia     42°59′47″N   21°56′58″E
temp.,
°C
wind,
m/s
gust,
m/s
humid.,
%
clouds,
%
prec.,
mm/h
press.,
hPa
HPBL,
m
26 february, fri
fri2601:00+8se12720 0.0 103122
04:00+7ese11730 0.0 103122
07:00+7se11720 0.0 103022
10:00+13ssw01520 0.0 1029287
13:00+17nnw11440 0.0 1026523
16:00+16nw11500 0.0 1024172
19:00+12s11620 0.0 102423
22:00+10se11700 0.0 102422
27 february, sat
sat2701:00+9sse11740 0.0 102422
04:00+7se01800 0.0 102222
07:00+7se00810 0.0 102322
10:00+12nw24640 0.0 1022669
13:00+14nnw575922 0.0 10211380
16:00+11nnw5973100 0.3 10221132
19:00+7n497994 0.4 1025756
22:00+6nnw397669 0.0 1027954
28 february, sun
sun2801:00+4n268068 0.1 1029307
04:00+2nw14813 0.0 1029116
07:00+2ssw02801 0.0 1030113
10:00+6nnw36532 0.0 10301201
13:00+8nnw56519 0.0 10281302
16:00+7nnw575429 0.0 10281306
19:00+4nw396219 0.0 1031403
22:00+2wsw11720 0.0 103226
1 march, mon
mon101:00+1ssw11783 0.0 103222
04:000s118210 0.0 103222
07:00+1ssw117923 0.0 103247
10:00+5nnw356557 0.0 10321040
13:00+6nnw466679 0.3 10311072
16:00+6nnw566192 0.1 10311177
19:00+3nnw257990 0.1 1033150
22:00+2sw018289 0.0 103422
2 march, tue
tue201:00+2s118581 0.0 103422
04:00+2wsw018297 0.0 103449
07:00+2wnw119199 0.2 1035169
10:00+5nnw127388 0.0 1036632
13:00+7nnw225986 0.1 10361071
16:00+8nnw245589 0.0 10351304
19:00+4nnw227374 0.0 103732
22:00+2s01814 0.0 103822